Location: Spring Creek
(38.2870°N, 100.2160°W)
Time: 03:50:05
(UTC+00:00)

GENESIS II - Pass Details

Date: 08 May 2021
Orbit: 510 x 515 km, 64.5° (Epoch: 22 June)

Event Time Altitude Azimuth Distance (km) Brightness Sun altitude
Rises 02:02:53 0° 330° (NNW) 2,628 8.9 -5.2°
Reaches altitude 10° 02:05:04 10° 332° (NNW) 1,737 7.8 -5.6°
Maximum altitude 02:08:57 77° 59° (ENE) 529 4.2 -6.3°
Drops below altitude 10° 02:12:48 10° 145° (SE) 1,722 6.3 -6.9°
Enters shadow 02:13:33 - 146° (SE) 2,027 6.7 -7.1°
